Location: Waning Moon II Observatory
(30.3730°N, 89.7620°W)
Time: 14:35:52
(UTC-05:00)

Meteor 1-21 - Visible Passes

Search period start: 23 August 2017 00:00
Search period end: 02 September 2017 00:00
Orbit: 841 x 891 km, 81.2° (Epoch: 23 August)

Date Brightness Start Highest point End Pass type
(mag) Time Alt. Az. Time Alt. Az. Time Alt. Az.
23 Aug 6.1 21:44:58 10° NNE 21:46:52 17° NE 21:46:52 17° NE visible
23 Aug 6.6 23:27:36 10° NNW 23:29:13 18° NW 23:29:13 18° NW visible
24 Aug 6.0 21:37:37 10° NNE 21:39:45 18° NE 21:39:45 18° NE visible
24 Aug 6.5 23:20:16 10° NNW 23:22:05 19° NW 23:22:05 19° NW visible
25 Aug 5.9 21:30:15 10° NNE 21:32:38 19° NE 21:32:38 19° NE visible
25 Aug 6.4 23:12:56 10° NNW 23:15:00 21° NW 23:15:00 21° NW visible
26 Aug 5.8 21:22:52 10° NNE 21:25:33 21° NE 21:25:33 21° NE visible
26 Aug 6.4 23:05:36 10° NNW 23:07:54 22° NW 23:07:54 22° NW visible
27 Aug 5.7 21:15:30 10° NNE 21:18:30 22° NE 21:18:30 22° NE visible
27 Aug 6.3 22:58:15 10° NNW 23:00:51 23° NW 23:00:51 23° NW visible
28 Aug 5.6 21:08:08 10° NNE 21:11:28 23° NE 21:11:28 23° NE visible
28 Aug 6.2 22:50:55 10° NNW 22:53:49 25° NW 22:53:49 25° NW visible
29 Aug 5.5 21:00:46 10° NNE 21:04:28 24° ENE 21:04:28 24° ENE visible
29 Aug 6.1 22:43:35 10° NNW 22:46:50 27° WNW 22:46:50 27° WNW visible
30 Aug 5.4 20:53:23 10° NNE 20:57:31 25° ENE 20:57:31 25° ENE visible
30 Aug 6.0 22:36:15 10° NNW 22:39:53 28° WNW 22:39:53 28° WNW visible
31 Aug 5.3 20:46:02 10° NNE 20:50:36 26° ENE 20:50:36 26° ENE visible
31 Aug 5.9 22:28:55 10° NNW 22:32:58 30° WNW 22:32:58 30° WNW visible
01 Sep 5.2 20:38:39 10° NNE 20:43:21 26° ENE 20:43:44 26° E visible
01 Sep 5.8 22:21:34 10° NNW 22:26:06 31° W 22:26:06 31° W visible
